Volver al catálogo

STARLINK-35479

ActivoComunicacionesVLEO
NORAD 66326·PAYLOAD·🇺🇸 United States

Lanzado Nov 6, 2025 desde Cape Canaveral Space Force Station

Loading…

Próximos Pases (próximas 24 horas)

TLE

ActualizadoSource: CelesTrak SupGP

Época: Sep 14, 2026, 23:17 UTC

1 66326C 25253H   26257.97062500  .00003404  00000+0  12325-3 0  2574
2 66326  43.0005 223.6033 0001415 259.6988  37.8347 15.27590699    10

Sigue STARLINK-35479 en tiempo real con AllMySat

Download on the App Store